Powrót do katalogu

QIANFAN-196

AktywnyŁącznośćPO
NORAD 69414·PAYLOAD·🇨🇳 China

Wystrzelony Jun 5, 2026 z Wenchang Space Launch Site

Loading…

Następne Przeloty (najbliższe 24 godziny)

TLE

ŚwieżeSource: Space-Track

Epoka: Sep 14, 2026, 23:05 UTC

1 69414U 26125P   26257.96190728  .00000014  00000-0  35577-5 0  9991
2 69414  88.9905 270.8630 0001856  92.4334 267.7030 13.51035260 14080

Śledź QIANFAN-196 w czasie rzeczywistym z AllMySat

Download on the App Store